TimeCDT,TemperatureF,Dew PointF,Humidity,Sea Level PressureIn,VisibilityMPH,Wind Direction,Wind SpeedMPH,Gust SpeedMPH,PrecipitationIn,Events,Conditions,WindDirDegrees,DateUTC
12:15 AM,64.4,53.6,68,30.08,10.0,SSE,8.1,-,N/A,,Clear,160,2013-03-30 05:15:00
12:35 AM,64.4,53.6,68,30.07,10.0,South,9.2,-,N/A,,Clear,180,2013-03-30 05:35:00
12:55 AM,64.4,53.6,68,30.06,10.0,South,9.2,-,N/A,,Clear,170,2013-03-30 05:55:00
1:15 AM,64.4,53.6,68,30.05,10.0,SSE,8.1,-,N/A,,Clear,150,2013-03-30 06:15:00
1:35 AM,62.6,53.6,72,30.05,10.0,SE,8.1,-,N/A,,Partly Cloudy,130,2013-03-30 06:35:00
1:55 AM,62.6,53.6,72,30.04,10.0,ESE,9.2,-,N/A,,Mostly Cloudy,120,2013-03-30 06:55:00
2:15 AM,62.6,53.6,72,30.05,10.0,SSE,4.6,-,N/A,,Mostly Cloudy,150,2013-03-30 07:15:00
2:35 AM,60.8,55.4,82,30.06,10.0,Calm,Calm,-,N/A,,Overcast,0,2013-03-30 07:35:00
2:55 AM,60.8,55.4,82,30.07,10.0,NNW,4.6,-,0.02,Thunderstorm,Overcast,340,2013-03-30 07:55:00
3:15 AM,60.8,55.4,82,30.07,8.0,North,4.6,-,0.10,,Overcast,350,2013-03-30 08:15:00
3:35 AM,60.8,57.2,88,30.05,8.0,NNE,8.1,-,0.20,,Mostly Cloudy,20,2013-03-30 08:35:00
3:55 AM,60.8,55.4,82,30.05,7.0,Calm,Calm,-,0.37,Thunderstorm,Thunderstorm,0,2013-03-30 08:55:00
4:15 AM,60.8,57.2,88,30.04,5.0,East,8.1,-,0.12,Thunderstorm,Overcast,100,2013-03-30 09:15:00
4:35 AM,60.8,57.2,88,30.03,5.0,East,8.1,-,0.22,,Overcast,100,2013-03-30 09:35:00
4:55 AM,60.8,57.2,88,30.03,6.0,SE,9.2,-,0.33,,Overcast,140,2013-03-30 09:55:00
5:15 AM,59.0,57.2,94,30.03,7.0,SE,8.1,-,0.12,,Overcast,130,2013-03-30 10:15:00
5:35 AM,59.0,55.4,88,30.05,10.0,SW,6.9,-,0.24,,Overcast,220,2013-03-30 10:35:00
5:55 AM,59.0,55.4,88,30.05,10.0,SW,4.6,-,0.31,,Overcast,230,2013-03-30 10:55:00
6:15 AM,57.2,55.4,94,29.98,8.0,SE,18.4,-,0.08,,Mostly Cloudy,130,2013-03-30 11:15:00
6:35 AM,57.2,55.4,94,30.02,10.0,SSW,6.9,-,0.10,,Mostly Cloudy,210,2013-03-30 11:35:00
6:55 AM,57.2,55.4,94,30.03,10.0,WSW,12.7,-,0.10,,Overcast,250,2013-03-30 11:55:00
7:15 AM,57.2,55.4,94,30.05,10.0,West,8.1,-,N/A,,Overcast,260,2013-03-30 12:15:00
7:35 AM,57.2,55.4,94,30.07,10.0,West,9.2,-,N/A,,Overcast,260,2013-03-30 12:35:00
7:55 AM,57.2,55.4,94,30.08,10.0,West,6.9,-,0.01,,Overcast,260,2013-03-30 12:55:00
8:15 AM,57.2,55.4,94,30.08,10.0,West,5.8,-,N/A,,Overcast,270,2013-03-30 13:15:00
8:35 AM,57.2,55.4,94,30.08,10.0,WSW,6.9,-,N/A,,Overcast,240,2013-03-30 13:35:00
8:55 AM,59.0,55.4,88,30.07,10.0,WSW,4.6,-,N/A,,Overcast,240,2013-03-30 13:55:00
9:15 AM,59.0,55.4,88,30.08,10.0,WSW,8.1,-,N/A,,Overcast,250,2013-03-30 14:15:00
9:35 AM,60.8,55.4,82,30.07,10.0,WSW,3.5,-,N/A,,Mostly Cloudy,250,2013-03-30 14:35:00
9:55 AM,60.8,57.2,88,30.07,10.0,NE,5.8,-,N/A,,Mostly Cloudy,40,2013-03-30 14:55:00
10:15 AM,60.8,57.2,88,30.06,10.0,NE,3.5,-,N/A,,Overcast,40,2013-03-30 15:15:00
10:35 AM,62.6,57.2,82,30.07,10.0,SSW,4.6,-,N/A,,Mostly Cloudy,210,2013-03-30 15:35:00
10:55 AM,64.4,57.2,77,30.07,10.0,South,5.8,-,N/A,,Overcast,170,2013-03-30 15:55:00
11:15 AM,64.4,57.2,77,30.07,10.0,SE,5.8,-,N/A,,Overcast,130,2013-03-30 16:15:00
11:35 AM,64.4,57.2,77,30.06,10.0,South,4.6,-,N/A,,Overcast,170,2013-03-30 16:35:00
11:55 AM,64.4,57.2,77,30.05,10.0,SSE,8.1,-,N/A,,Overcast,160,2013-03-30 16:55:00
12:15 PM,66.2,59.0,78,30.04,10.0,South,10.4,-,N/A,,Overcast,170,2013-03-30 17:15:00
12:35 PM,66.2,59.0,78,30.03,10.0,South,9.2,-,N/A,,Overcast,190,2013-03-30 17:35:00
12:55 PM,66.2,59.0,78,30.03,10.0,South,6.9,-,N/A,,Overcast,180,2013-03-30 17:55:00
1:15 PM,68.0,60.8,78,30.02,10.0,SW,12.7,-,N/A,,Overcast,220,2013-03-30 18:15:00
1:35 PM,68.0,59.0,73,30.02,10.0,SW,9.2,-,N/A,,Overcast,220,2013-03-30 18:35:00
1:55 PM,68.0,60.8,78,30.02,10.0,SSW,8.1,-,N/A,,Overcast,210,2013-03-30 18:55:00
2:15 PM,68.0,60.8,78,30.00,10.0,SSW,6.9,-,N/A,,Overcast,210,2013-03-30 19:15:00
2:35 PM,68.0,60.8,78,29.99,10.0,SSW,9.2,-,N/A,,Overcast,210,2013-03-30 19:35:00
2:55 PM,69.8,60.8,73,29.98,10.0,SSW,9.2,-,N/A,,Overcast,210,2013-03-30 19:55:00
3:15 PM,69.8,60.8,73,29.97,10.0,SSW,9.2,-,N/A,,Overcast,210,2013-03-30 20:15:00
3:35 PM,69.8,60.8,73,29.97,10.0,South,5.8,-,N/A,,Overcast,180,2013-03-30 20:35:00
3:55 PM,69.8,60.8,73,29.96,10.0,South,5.8,-,N/A,,Overcast,180,2013-03-30 20:55:00
4:15 PM,69.8,60.8,73,29.95,10.0,South,4.6,-,N/A,,Overcast,170,2013-03-30 21:15:00
4:35 PM,71.6,62.6,73,29.94,10.0,South,4.6,-,N/A,,Overcast,170,2013-03-30 21:35:00
4:55 PM,71.6,62.6,73,29.94,10.0,SE,6.9,-,N/A,,Overcast,140,2013-03-30 21:55:00
5:15 PM,71.6,62.6,73,29.94,10.0,SE,9.2,-,N/A,,Mostly Cloudy,140,2013-03-30 22:15:00
5:35 PM,71.6,62.6,73,29.93,10.0,SSE,11.5,-,N/A,,Mostly Cloudy,160,2013-03-30 22:35:00
5:55 PM,71.6,62.6,73,29.93,10.0,SSE,9.2,-,N/A,,Mostly Cloudy,160,2013-03-30 22:55:00
6:15 PM,71.6,62.6,73,29.93,10.0,SSE,9.2,-,N/A,,Overcast,160,2013-03-30 23:15:00
6:35 PM,71.6,62.6,73,29.93,10.0,SSW,10.4,-,N/A,,Overcast,200,2013-03-30 23:35:00
6:55 PM,71.6,62.6,73,29.93,10.0,SSW,17.3,-,N/A,,Mostly Cloudy,200,2013-03-30 23:55:00
7:15 PM,71.6,62.6,73,29.93,10.0,SSW,10.4,-,N/A,,Scattered Clouds,210,2013-03-31 00:15:00
7:35 PM,69.8,60.8,73,29.93,10.0,SSW,9.2,-,N/A,,Clear,200,2013-03-31 00:35:00
7:55 PM,68.0,60.8,78,29.93,10.0,SSW,6.9,-,N/A,,Partly Cloudy,200,2013-03-31 00:55:00
8:15 PM,66.2,60.8,83,29.93,10.0,South,5.8,-,N/A,,Clear,190,2013-03-31 01:15:00
8:35 PM,66.2,59.0,78,29.93,10.0,South,5.8,-,N/A,,Clear,170,2013-03-31 01:35:00
8:55 PM,64.4,59.0,83,29.93,10.0,SSE,6.9,-,N/A,,Clear,160,2013-03-31 01:55:00
9:15 PM,64.4,59.0,83,29.93,10.0,SSE,6.9,-,N/A,,Clear,160,2013-03-31 02:15:00
9:35 PM,64.4,59.0,83,29.93,10.0,South,5.8,-,N/A,,Clear,170,2013-03-31 02:35:00
9:55 PM,64.4,57.2,77,29.94,10.0,South,5.8,-,N/A,,Clear,180,2013-03-31 02:55:00
10:15 PM,64.4,59.0,83,29.94,10.0,South,4.6,-,N/A,,Clear,170,2013-03-31 03:15:00
10:35 PM,64.4,59.0,83,29.94,10.0,South,5.8,-,N/A,,Clear,190,2013-03-31 03:35:00
10:55 PM,64.4,59.0,83,29.95,10.0,South,4.6,-,N/A,,Scattered Clouds,190,2013-03-31 03:55:00
11:15 PM,62.6,59.0,88,29.94,10.0,SSW,4.6,-,N/A,,Mostly Cloudy,200,2013-03-31 04:15:00
11:35 PM,64.4,59.0,83,29.94,10.0,South,5.8,-,N/A,,Overcast,180,2013-03-31 04:35:00
11:55 PM,64.4,59.0,83,29.93,10.0,South,5.8,-,N/A,,Mostly Cloudy,170,2013-03-31 04:55:00